Location: Balsareny
(41.8670°N, 1.8830°E)
Time: 20:25:57
(UTC+01:00)

ISS - Pass Details

Date: 04 December 2021
Orbit: 413 x 422 km, 51.6° (Epoch: 25 January)

Event Time Altitude Azimuth Distance (km) Brightness Sun altitude
Rises 17:47:25 0° 307° (NW) 2,386 0.5 -5.1°
Reaches altitude 10° 17:49:53 10° 324° (NW) 1,517 -0.8 -5.5°
Maximum altitude 17:52:33 21° 16° (NNE) 1,020 -2.2 -5.9°
Drops below altitude 10° 17:55:12 10° 67° (ENE) 1,509 -1.6 -6.4°
Enters shadow 17:55:37 - 71° (ENE) 1,643 -1.4 -6.5°
